星链-2456 (STARLINK-2456 )

导读 | 星芒AI

STARLINK-2456 是 SpaceX Starlink 项目中的一颗低轨通信卫星,旨在为全球用户提供高速互联网服务。该卫星属于 Starlink 群体部署的一部分,运行在约 550 公里的轨道高度,采用先进的推进和通信技术,支持宽带数据传输。作为 SpaceX 扩展全球网络覆盖计划的一部分,STARLINK-2456 有助于提升偏远地区的网络接入能力,并优化整体星座的性能与可靠性。

基本信息
目录编号:
47846
目录名称:
STARLINK-2456
国际标识:
2021-018BM
轨道中心:
EARTH
卫星名称:
星链-2456
卫星全名:
星链-2456 (STARLINK-2456 )
卫星状态:
已陨落 最后检测时间 2024-07-27
发射日期:
2021-03-11 UTC
国别 :
美国 (US)
星等 :
--
轨道信息
数据来源 国际轨道数据
星历时间: 2024-07-28T05:59:41+0800
轨道信息已过期462天
半长轴: 6555.713km
偏心率: 0.0011003
轨道倾角: 53.039°
近地点辐角 304.131°
升交点赤经 314.200°
平近点角 182.141°
近地点: 170.364km
远地点: 184.792km
周期: 88.042分钟
每日圈数: 16.355841
详细信息
固有亮度:
5
最大亮度:
2.5
卫星平台:
Starlink V1.0
覆盖范围:
全球
运营商:
太空探索技术公司
运营商所在国:
美国
制造商(研发单位):
太空探索技术公司
制造商所在国:
美国
使用方式:
暂无
卫星简介
星链(Starlink)计划是由太空探索技术公司(SpaceX)提出的一个巨型低轨卫星互联网星座项目,计划在2019年至2024年间在太空搭建由约1.2万颗卫星组成的“星链”网络,其中1584颗将部署在地球上空550千米处的近地轨道,并从2020年开始工作。该卫星仍在工作。